Valdosta Regional, GA

4:51 AM EST on February 21, 2018 (GMT -0500)
Valdosta Regional

Weather History for KVLD - June, 2013

Change the Weather History Date:

Sunday, June 23, 2013

  Actual Average Record
Temperature  
Mean Temperature 84 °F 80 °F  
Max Temperature 93 °F 91 °F 102 °F (2011)
Min Temperature 74 °F 70 °F 66 °F (2005)
Cooling Degree Days 19 15  
Month to date cooling degree days 428 322  
Year to date cooling degree days 990 734  
Since 1 June cooling degree days 428 322  
Growing Degree Days 32 (Base 50)    
Moisture  
Dew Point 71 °F    
Average Humidity 68    
Maximum Humidity 87    
Minimum Humidity 49    
Precipitation  
Precipitation 0.00 in 0.20 in 0.62 in (2000)
Month to date precipitation 1.19 4.90  
Year to date precipitation 15.73 23.90  
Sea Level Pressure  
Sea Level Pressure 30.15 in    
Wind  
Wind Speed 3 mph (SSE)    
Max Wind Speed 14 mph    
Max Gust Speed 17 mph    
Visibility 9 miles    
Events      
T = Trace of Precipitation, MM = Missing Value Source: NWS Daily Summary

Daily Weather History Graph

Daily Weather History Graph

Search for Another Location

Airport or City:

Trip Planner

Search our weather history database for the weather conditions in past years. The results will help you decide how hot, cold, wet, or windy it might be!

Date:

Astronomy

Jun. 23, 2013 Rise Set
Actual Time 6:31 AM EDT 8:39 PM EDT
Civil Twilight 6:03 AM EDT 9:07 PM EDT
Nautical Twilight 5:29 AM EDT 9:41 PM EDT
Astronomical Twilight 4:53 AM EDT 10:17 PM EDT
Moon 8:56 PM EDT (6/23) 6:43 AM EDT (6/23)
Length of Visible Light 15h 04m
Length of Day
14h 08m
Full, 100% of the Moon is Illuminated
Jun 23
Full
Jun 30
Last Quarter
Jul 8
New
Jul 15
First Quarter
Jul 22
Full

Hourly Weather History & Observations

Time (EDT) Temp. Heat Index Dew Point Humidity Pressure Visibility Wind Dir Wind Speed Gust Speed Precip Events Conditions
12:53 AM 73.9 °F - 70.0 °F 87% 30.15 in 10.0 mi ESE 5.8 mph - N/A   Overcast
1:53 AM 73.9 °F - 70.0 °F 87% 30.15 in 9.0 mi SSE 5.8 mph - N/A   Overcast
2:53 AM 75.0 °F - 71.1 °F 87% 30.14 in 7.0 mi SE 3.5 mph - N/A   Overcast
3:53 AM 75.0 °F - 71.1 °F 87% 30.13 in 6.0 mi Calm Calm - N/A   Overcast
4:53 AM 75.9 °F - 72.0 °F 87% 30.13 in 5.0 mi SE 3.5 mph - N/A   Overcast
5:53 AM 75.9 °F - 72.0 °F 87% 30.14 in 7.0 mi Calm Calm - N/A   Overcast
6:43 AM 75.2 °F - 71.6 °F 89% 30.12 in 2.0 mi Calm Calm - N/A   Overcast
6:53 AM 75.0 °F - 71.1 °F 87% 30.14 in 3.0 mi SE 3.5 mph - N/A   Overcast
7:53 AM 77.0 °F - 72.0 °F 84% 30.16 in 7.0 mi SSE 4.6 mph - N/A   Overcast
8:10 AM 78.8 °F - 71.6 °F 78% 30.15 in 9.0 mi Calm Calm - N/A   Mostly Cloudy
8:25 AM 78.8 °F - 71.6 °F 78% 30.15 in 10.0 mi South 3.5 mph - N/A   Scattered Clouds
8:53 AM 80.1 °F 83.8 °F 72.0 °F 76% 30.17 in 10.0 mi South 4.6 mph - N/A   Scattered Clouds
9:53 AM 82.9 °F 87.5 °F 71.1 °F 67% 30.19 in 10.0 mi South 8.1 mph - N/A   Clear
10:53 AM 84.9 °F 90.1 °F 71.1 °F 63% 30.19 in 10.0 mi South 6.9 mph - N/A   Clear
11:53 AM 89.1 °F 93.7 °F 69.1 °F 52% 30.19 in 10.0 mi Variable 4.6 mph - N/A   Clear
12:53 PM 91.0 °F 96.6 °F 70.0 °F 50% 30.18 in 10.0 mi Variable 4.6 mph - N/A   Clear
1:53 PM 91.9 °F 96.9 °F 69.1 °F 47% 30.17 in 10.0 mi SSE 5.8 mph - N/A   Clear
2:53 PM 89.1 °F 95.0 °F 71.1 °F 55% 30.15 in 10.0 mi South 11.5 mph - N/A   Mostly Cloudy
3:53 PM 88.0 °F 93.8 °F 71.1 °F 57% 30.14 in 10.0 mi SSW 5.8 mph - N/A   Partly Cloudy
4:53 PM 89.1 °F 95.0 °F 71.1 °F 55% 30.12 in 10.0 mi SSW 3.5 mph - N/A   Clear
5:53 PM 89.1 °F 93.7 °F 69.1 °F 52% 30.12 in 10.0 mi Calm Calm - N/A   Clear
6:53 PM 88.0 °F 94.7 °F 72.0 °F 59% 30.12 in 10.0 mi Calm Calm - N/A   Clear
7:53 PM 86.0 °F 95.1 °F 75.0 °F 70% 30.14 in 10.0 mi Calm Calm - N/A   Clear
8:53 PM 82.9 °F 89.4 °F 73.9 °F 74% 30.15 in 10.0 mi Calm Calm - N/A   Clear
9:53 PM 80.1 °F 84.2 °F 73.0 °F 79% 30.15 in 10.0 mi Calm Calm - N/A   Clear
10:53 PM 81.0 °F 85.2 °F 72.0 °F 74% 30.17 in 10.0 mi SE 4.6 mph - N/A   Clear
11:53 PM 80.1 °F 83.8 °F 72.0 °F 76% 30.19 in 10.0 mi Calm Calm - N/A   Clear